SWR37W LIRQ-LSZH

Flight info

Callsign SWR37W
Flight time 0h 52m
Altitude 18000
Route BALUK M730 RUXOL/N0450F380 DCT CANNE Z651 KELIP
Aircraft A20N/M-SDE2E3FGHIRWXY/LB1

Departure

Time 2026-05-08 18:09
Airport Florence Airport, Peretola (LIRQ)

Arrival

Time 2026-05-08 19:02
Airport Zürich Airport (LSZH)
Time Latitude Longitude Altitude Speed Heading
2026-05-08 17:48 43.80321 11.20092 125 ft 0 kts 129°
2026-05-08 18:02 43.80327 11.20081 104 ft 2 kts 127°
2026-05-08 18:03 43.80337 11.20062 132 ft 2 kts 126°
2026-05-08 18:03 43.80347 11.20043 123 ft 2 kts 121°
2026-05-08 18:03 43.80354 11.20023 123 ft 2 kts 109°
2026-05-08 18:03 43.80359 11.20001 126 ft 2 kts 109°
2026-05-08 18:04 43.80366 11.19981 127 ft 2 kts 129°
2026-05-08 18:04 43.80378 11.19964 130 ft 2 kts 144°
2026-05-08 18:04 43.80392 11.19953 129 ft 2 kts 160°
2026-05-08 18:04 43.80408 11.19946 131 ft 2 kts 174°
2026-05-08 18:05 43.80425 11.19947 131 ft 2 kts 192°
2026-05-08 18:05 43.80433 11.19950 131 ft 0 kts 193°
2026-05-08 18:07 43.80431 11.19949 131 ft 2 kts 193°
2026-05-08 18:07 43.80411 11.19918 131 ft 7 kts 271°
2026-05-08 18:08 43.80456 11.19839 128 ft 11 kts 318°
2026-05-08 18:08 43.80486 11.19736 128 ft 8 kts 299°
2026-05-08 18:08 43.80518 11.19760 129 ft 0 kts 52°
2026-05-08 18:09 43.80587 11.19873 127 ft 52 kts 47°
2026-05-08 18:09 43.81038 11.20556 127 ft 135 kts 48°
2026-05-08 18:09 43.81805 11.21592 586 ft 160 kts 28°
2026-05-08 18:09 43.82910 11.21636 1423 ft 170 kts 332°
2026-05-08 18:10 43.83593 11.20365 2381 ft 167 kts 276°
2026-05-08 18:10 43.83405 11.18867 3374 ft 155 kts 246°
2026-05-08 18:10 43.82933 11.17551 4194 ft 151 kts 241°
2026-05-08 18:10 43.82420 11.16283 4934 ft 151 kts 240°
2026-05-08 18:11 43.81888 11.15019 5616 ft 153 kts 240°
2026-05-08 18:11 43.81410 11.13696 6288 ft 155 kts 251°
2026-05-08 18:11 43.81189 11.12240 6930 ft 157 kts 266°
2026-05-08 18:11 43.81120 11.10645 7391 ft 174 kts 269°
2026-05-08 18:12 43.81108 11.08877 7854 ft 194 kts 271°
2026-05-08 18:12 43.81128 11.06912 8322 ft 214 kts 271°
2026-05-08 18:12 43.81267 11.04765 8711 ft 236 kts 287°
2026-05-08 18:12 43.82159 11.02753 9074 ft 260 kts 317°
2026-05-08 18:13 43.83761 11.01423 9556 ft 281 kts 344°
2026-05-08 18:13 43.85730 11.01044 10292 ft 291 kts 357°
2026-05-08 18:13 43.87815 11.00959 10718 ft 314 kts 359°
2026-05-08 18:13 43.90084 11.00927 11073 ft 337 kts 359°
2026-05-08 18:14 43.92469 11.00871 11816 ft 344 kts 358°
2026-05-08 18:14 43.94880 11.00780 12691 ft 349 kts 358°
2026-05-08 18:14 43.97322 11.00660 13569 ft 353 kts 357°
2026-05-08 18:14 43.99790 11.00526 14362 ft 357 kts 355°
2026-05-08 18:15 44.02253 10.99979 15140 ft 359 kts 343°
2026-05-08 18:15 44.04552 10.98729 15913 ft 360 kts 331°
2026-05-08 18:15 44.06702 10.96901 16677 ft 363 kts 326°
2026-05-08 18:15 44.08844 10.95006 17435 ft 367 kts 326°
2026-05-08 18:16 44.11020 10.93090 18223 ft 370 kts 326°
2026-05-08 18:16 44.13207 10.91168 18864 ft 374 kts 326°
2026-05-08 18:16 44.15424 10.89222 19484 ft 378 kts 326°
2026-05-08 18:16 44.17631 10.87278 20087 ft 382 kts 326°
2026-05-08 18:17 44.19897 10.85280 20721 ft 386 kts 325°
2026-05-08 18:17 44.22183 10.83263 21325 ft 390 kts 325°
2026-05-08 18:17 44.24458 10.81253 21944 ft 393 kts 325°
2026-05-08 18:17 44.26786 10.79195 22554 ft 397 kts 325°
2026-05-08 18:18 44.29136 10.77116 23152 ft 401 kts 324°
2026-05-08 18:18 44.31510 10.75010 23741 ft 404 kts 325°
2026-05-08 18:18 44.33853 10.72936 24333 ft 404 kts 324°
2026-05-08 18:18 44.36233 10.70831 24958 ft 403 kts 324°
2026-05-08 18:19 44.38606 10.68729 25512 ft 404 kts 324°
2026-05-08 18:19 44.40980 10.66621 26029 ft 406 kts 324°
2026-05-08 18:19 44.43367 10.64499 26566 ft 407 kts 324°
2026-05-08 18:19 44.45760 10.62368 27090 ft 408 kts 323°
2026-05-08 18:20 44.48161 10.60229 27590 ft 409 kts 323°
2026-05-08 18:20 44.50538 10.58110 28074 ft 410 kts 323°
2026-05-08 18:20 44.52953 10.55945 28503 ft 412 kts 323°
2026-05-08 18:20 44.55365 10.53766 28941 ft 413 kts 323°
2026-05-08 18:21 44.57791 10.51570 29377 ft 415 kts 323°
2026-05-08 18:21 44.60230 10.49360 29811 ft 417 kts 323°
2026-05-08 18:21 44.62641 10.47174 30054 ft 419 kts 323°
2026-05-08 18:21 44.65089 10.44953 30026 ft 418 kts 323°
2026-05-08 18:22 44.69986 10.40501 30025 ft 418 kts 323°
2026-05-08 18:22 44.74851 10.36070 30023 ft 418 kts 323°
2026-05-08 18:23 44.79743 10.31610 30022 ft 419 kts 323°
2026-05-08 18:23 44.84527 10.26923 30024 ft 417 kts 320°
2026-05-08 18:24 44.89156 10.22045 30022 ft 417 kts 320°
2026-05-08 18:24 44.93816 10.17136 30024 ft 417 kts 320°
2026-05-08 18:25 44.98440 10.12250 30021 ft 417 kts 320°
2026-05-08 18:25 45.03093 10.07322 30030 ft 417 kts 320°
2026-05-08 18:26 45.07753 10.02401 30027 ft 417 kts 320°
2026-05-08 18:26 45.12375 9.97518 30029 ft 417 kts 320°
2026-05-08 18:27 45.16246 9.93418 30030 ft 417 kts 320°
2026-05-08 18:27 45.21659 9.87672 30030 ft 417 kts 320°
2026-05-08 18:28 45.26314 9.82719 30033 ft 417 kts 320°
2026-05-08 18:28 45.30924 9.77803 30038 ft 417 kts 320°
2026-05-08 18:29 45.35552 9.72839 30041 ft 416 kts 320°
2026-05-08 18:29 45.40163 9.67842 30042 ft 416 kts 320°
2026-05-08 18:30 45.43983 9.63696 30045 ft 416 kts 320°
2026-05-08 18:30 45.49341 9.57875 30047 ft 415 kts 320°
2026-05-08 18:31 45.53167 9.53712 30049 ft 415 kts 320°
2026-05-08 18:31 45.57781 9.48726 30049 ft 415 kts 321°
2026-05-08 18:32 45.62511 9.43945 30047 ft 415 kts 322°
2026-05-08 18:32 45.67201 9.39210 30046 ft 415 kts 322°
2026-05-08 18:33 45.71912 9.34405 30048 ft 414 kts 322°
2026-05-08 18:33 45.76576 9.29627 30051 ft 414 kts 322°
2026-05-08 18:34 45.81259 9.24818 30056 ft 414 kts 322°
2026-05-08 18:34 45.85932 9.20013 30058 ft 412 kts 321°
2026-05-08 18:35 45.90586 9.15212 30067 ft 413 kts 322°
2026-05-08 18:35 45.95255 9.10429 30061 ft 413 kts 324°
2026-05-08 18:36 46.00569 9.07068 30071 ft 421 kts 341°
2026-05-08 18:36 46.06400 9.05850 30080 ft 428 kts 349°
2026-05-08 18:37 46.12321 9.04880 30053 ft 426 kts 349°
2026-05-08 18:37 46.18190 9.03938 30055 ft 427 kts 349°
2026-05-08 18:38 46.24125 9.03158 30056 ft 427 kts 349°
2026-05-08 18:38 46.30036 9.02389 30060 ft 427 kts 350°
2026-05-08 18:39 46.35982 9.01602 30061 ft 429 kts 350°
2026-05-08 18:39 46.41914 9.00807 30068 ft 428 kts 350°
2026-05-08 18:40 46.47847 9.00010 30068 ft 427 kts 350°
2026-05-08 18:40 46.53877 8.99204 30070 ft 428 kts 350°
2026-05-08 18:41 46.59831 8.98404 30064 ft 428 kts 350°
2026-05-08 18:41 46.65785 8.97602 30065 ft 430 kts 350°
2026-05-08 18:42 46.71709 8.96797 30067 ft 430 kts 350°
2026-05-08 18:42 46.77659 8.95989 29615 ft 427 kts 350°
2026-05-08 18:43 46.80642 8.95580 28585 ft 434 kts 349°
2026-05-08 18:43 46.83681 8.95051 27350 ft 440 kts 345°
2026-05-08 18:43 46.86542 8.93708 26564 ft 432 kts 332°
2026-05-08 18:43 46.89069 8.91467 26112 ft 417 kts 319°
2026-05-08 18:44 46.91078 8.88512 25680 ft 403 kts 305°
2026-05-08 18:44 46.92505 8.85031 25132 ft 396 kts 295°
2026-05-08 18:44 46.93831 8.81527 24593 ft 392 kts 303°
2026-05-08 18:44 46.95666 8.78595 24054 ft 391 kts 318°
2026-05-08 18:45 46.97972 8.76492 23482 ft 393 kts 334°
2026-05-08 18:45 47.00567 8.75376 22914 ft 394 kts 349°
2026-05-08 18:45 47.02748 8.75015 22475 ft 391 kts 351°
2026-05-08 18:45 47.05442 8.74599 21924 ft 387 kts 351°
2026-05-08 18:46 47.08092 8.74074 21380 ft 382 kts 347°
2026-05-08 18:46 47.10706 8.73377 20834 ft 379 kts 347°
2026-05-08 18:46 47.13310 8.72690 20238 ft 377 kts 347°
2026-05-08 18:46 47.15864 8.72017 19672 ft 376 kts 347°
2026-05-08 18:47 47.18438 8.71326 19113 ft 374 kts 347°
2026-05-08 18:47 47.18744 8.71243 19048 ft 374 kts 346°
2026-05-08 18:48 47.20168 8.70847 18738 ft 372 kts 347°
2026-05-08 18:48 47.22661 8.70139 18203 ft 370 kts 347°
2026-05-08 18:48 47.25185 8.69411 17596 ft 368 kts 346°
2026-05-08 18:49 47.27701 8.68659 17011 ft 366 kts 346°
2026-05-08 18:49 47.30141 8.67673 16494 ft 360 kts 335°
2026-05-08 18:49 47.32346 8.66075 15964 ft 355 kts 329°
2026-05-08 18:49 47.34498 8.64327 15467 ft 352 kts 329°
2026-05-08 18:50 47.36657 8.62627 14950 ft 350 kts 330°
2026-05-08 18:50 47.38734 8.60794 14444 ft 347 kts 325°
2026-05-08 18:50 47.40779 8.58912 13930 ft 345 kts 326°
2026-05-08 18:50 47.42843 8.57069 13371 ft 344 kts 327°
2026-05-08 18:51 47.44838 8.55147 12878 ft 338 kts 317°
2026-05-08 18:51 47.46348 8.52606 12401 ft 331 kts 301°
2026-05-08 18:51 47.47384 8.49607 11925 ft 326 kts 292°
2026-05-08 18:51 47.48313 8.46553 11429 ft 324 kts 293°
2026-05-08 18:52 47.49264 8.43527 10929 ft 322 kts 294°
2026-05-08 18:52 47.50218 8.40535 10446 ft 320 kts 294°
2026-05-08 18:52 47.51161 8.37604 10237 ft 310 kts 294°
2026-05-08 18:52 47.52068 8.34793 10119 ft 296 kts 294°
2026-05-08 18:53 47.52925 8.32123 9988 ft 284 kts 294°
2026-05-08 18:53 47.53979 8.29705 9787 ft 283 kts 314°
2026-05-08 18:53 47.55566 8.27926 9576 ft 286 kts 323°
2026-05-08 18:53 47.57181 8.26202 9368 ft 284 kts 320°
2026-05-08 18:54 47.58688 8.24365 9158 ft 283 kts 318°
2026-05-08 18:54 47.60197 8.22485 8852 ft 283 kts 318°
2026-05-08 18:54 47.61699 8.20603 8464 ft 282 kts 318°
2026-05-08 18:54 47.63194 8.18719 8085 ft 280 kts 318°
2026-05-08 18:55 47.66678 8.16643 7341 ft 278 kts
2026-05-08 18:55 47.68500 8.17506 7086 ft 271 kts 33°
2026-05-08 18:55 47.69797 8.19453 6841 ft 263 kts 61°
2026-05-08 18:56 47.70297 8.21997 6604 ft 255 kts 90°
2026-05-08 18:56 47.69839 8.24412 6354 ft 246 kts 126°
2026-05-08 18:56 47.68612 8.26132 6097 ft 241 kts 143°
2026-05-08 18:56 47.67307 8.27633 5997 ft 235 kts 141°
2026-05-08 18:57 47.66047 8.29236 6008 ft 239 kts 138°
2026-05-08 18:57 47.65220 8.30360 5915 ft 239 kts 137°
2026-05-08 18:57 47.63605 8.32565 5489 ft 236 kts 136°
2026-05-08 18:57 47.62407 8.34219 5160 ft 233 kts 137°
2026-05-08 18:58 47.61234 8.35821 4859 ft 230 kts 137°
2026-05-08 18:58 47.60067 8.37420 4539 ft 225 kts 136°
2026-05-08 18:58 47.58938 8.38965 4241 ft 217 kts 136°
2026-05-08 18:58 47.57848 8.40456 3960 ft 209 kts 136°
2026-05-08 18:59 47.56796 8.41897 3742 ft 202 kts 136°
2026-05-08 18:59 47.55783 8.43279 3461 ft 195 kts 136°
2026-05-08 18:59 47.54810 8.44608 3195 ft 186 kts 136°
2026-05-08 18:59 47.53918 8.45827 2960 ft 166 kts 135°
2026-05-08 19:00 47.53365 8.46582 2804 ft 154 kts 135°
2026-05-08 19:00 47.52379 8.47925 2546 ft 136 kts 135°
2026-05-08 19:00 47.51696 8.48866 2366 ft 136 kts 135°
2026-05-08 19:00 47.51006 8.49808 2175 ft 134 kts 135°
2026-05-08 19:01 47.50317 8.50762 2017 ft 133 kts 136°
2026-05-08 19:01 47.49631 8.51683 1837 ft 133 kts 136°
2026-05-08 19:01 47.48959 8.52591 1640 ft 132 kts 136°
2026-05-08 19:01 47.48277 8.53523 1464 ft 132 kts 136°
2026-05-08 19:02 47.47637 8.54400 1398 ft 105 kts 139°
2026-05-08 19:02 47.47246 8.54927 1383 ft 52 kts 137°
2026-05-08 19:02 47.47003 8.55258 1387 ft 46 kts 137°
2026-05-08 19:02 47.46797 8.55538 1398 ft 35 kts 139°
2026-05-08 19:03 47.46585 8.55685 1401 ft 33 kts 166°
2026-05-08 19:03 47.46440 8.55733 1399 ft 12 kts 167°
2026-05-08 19:03 47.46358 8.55790 1406 ft 14 kts 141°
2026-05-08 19:03 47.46279 8.55897 1408 ft 16 kts 137°
2026-05-08 19:04 47.46200 8.55994 1407 ft 15 kts 157°
2026-05-08 19:04 47.46072 8.55986 1407 ft 20 kts 184°
2026-05-08 19:04 47.45922 8.55947 1409 ft 20 kts 200°
2026-05-08 19:04 47.45790 8.55883 1409 ft 18 kts 195°
2026-05-08 19:05 47.45655 8.55859 1408 ft 18 kts 186°
2026-05-08 19:05 47.45554 8.55839 1410 ft 12 kts 187°
2026-05-08 19:05 47.45496 8.55909 1411 ft 16 kts 100°
2026-05-08 19:05 47.45487 8.56043 1411 ft 9 kts 95°
2026-05-08 19:06 47.45443 8.56067 1409 ft 9 kts 187°
2026-05-08 19:06 47.45411 8.56062 1410 ft 3 kts 186°
2026-05-08 19:06 47.45408 8.56061 1409 ft 0 kts 186°